When you browse on this site, cookies collect data to enhance your experience and personalize the content and advertising you see.
Visit our Privacy Policy to learn more. By continuing to use the site, you agree to this use of cookies and data.
  • en France
  • Liste des pays
  • À 7 jours
  • Température de l'eau
  • Carte satellitaire
  • Carte météo
  • Widgets météo
  • user-avatar
    Se connecter

    Météo par heure à Dijon

    Ce jour, 18 Juin, Mardi

    Heure Température Précipitation Vent Pression Humidité
    00:00 +16°C° 0 mm 1 m/s 737 mmHg 89%
    01:00 +16°C° 0 mm 1 m/s 736 mmHg 89%
    02:00 +14°C° 0 mm 0 m/s 736 mmHg 89%
    03:00 +14°C° 0 mm 0 m/s 736 mmHg 89%
    04:00 +15°C° 0 mm 0 m/s 736 mmHg 88%
    05:00 +16°C° 0 mm 0 m/s 736 mmHg 88%
    06:00 +17°C° 0 mm 0 m/s 736 mmHg 88%
    07:00 +21°C° 0 mm 1 m/s 736 mmHg 83%
    08:00 +22°C° 0 mm 1 m/s 736 mmHg 79%
    09:00 +24°C° 0 mm 2 m/s 736 mmHg 74%
    10:00 +25°C° 0 mm 2 m/s 736 mmHg 72%
    11:00 +26°C° 0 mm 2 m/s 735 mmHg 70%
    12:00 +26°C° 0 mm 3 m/s 735 mmHg 69%
    13:00 +27°C° 0 mm 3 m/s 735 mmHg 66%
    14:00 +28°C° 0 mm 2 m/s 735 mmHg 64%
    15:00 +28°C° 0 mm 2 m/s 735 mmHg 61%
    16:00 +28°C° 0.1 mm 2 m/s 734 mmHg 65%
    17:00 +27°C° 0.1 mm 2 m/s 734 mmHg 69%
    18:00 +26°C° 0.1 mm 2 m/s 734 mmHg 73%
    19:00 +24°C° 0 mm 2 m/s 734 mmHg 77%
    20:00 +23°C° 0 mm 2 m/s 734 mmHg 82%
    21:00 +20°C° 0 mm 2 m/s 734 mmHg 86%
    22:00 +19°C° 0 mm 2 m/s 734 mmHg 84%
    23:00 +18°C° 0 mm 2 m/s 733 mmHg 81%

    Demain, 19 Juin, Mercredi

    Heure Température Précipitation Vent Pression Humidité
    00:00 +17°C° 0 mm 2 m/s 733 mmHg 78%
    01:00 +16°C° 0.3 mm 2 m/s 733 mmHg 80%
    02:00 +14°C° 0.3 mm 3 m/s 733 mmHg 82%
    03:00 +14°C° 0.3 mm 3 m/s 733 mmHg 84%
    04:00 +15°C° 0.1 mm 2 m/s 733 mmHg 84%
    05:00 +16°C° 0.1 mm 2 m/s 733 mmHg 85%
    06:00 +18°C° 0.1 mm 1 m/s 733 mmHg 85%
    07:00 +19°C° 0 mm 2 m/s 733 mmHg 79%
    08:00 +20°C° 0 mm 2 m/s 733 mmHg 74%
    09:00 +22°C° 0 mm 3 m/s 734 mmHg 68%
    10:00 +25°C° 0 mm 3 m/s 734 mmHg 65%
    11:00 +26°C° 0 mm 3 m/s 734 mmHg 62%
    12:00 +27°C° 0 mm 3 m/s 734 mmHg 59%
    13:00 +27°C° 1 mm 3 m/s 734 mmHg 65%
    14:00 +26°C° 1 mm 3 m/s 733 mmHg 71%
    15:00 +25°C° 1 mm 3 m/s 733 mmHg 77%
    16:00 +25°C° 0.3 mm 3 m/s 733 mmHg 80%
    17:00 +24°C° 0.3 mm 3 m/s 733 mmHg 83%
    18:00 +23°C° 0.3 mm 2 m/s 734 mmHg 85%
    19:00 +21°C° 0.1 mm 2 m/s 734 mmHg 87%
    20:00 +19°C° 0.1 mm 2 m/s 734 mmHg 89%
    21:00 +18°C° 0.1 mm 2 m/s 735 mmHg 92%
    22:00 +17°C° 0.6 mm 2 m/s 735 mmHg 92%
    23:00 +18°C° 0.6 mm 1 m/s 735 mmHg 93%

    Après-demain, 20 Juin, Jeudi

    Heure Température Précipitation Vent Pression Humidité
    00:00 +16°C° 0.6 mm 1 m/s 735 mmHg 94%
    01:00 +16°C° 0.3 mm 1 m/s 734 mmHg 94%
    02:00 +16°C° 0.3 mm 1 m/s 734 mmHg 93%
    03:00 +15°C° 0.3 mm 0 m/s 734 mmHg 93%
    04:00 +15°C° 0.2 mm 0 m/s 734 mmHg 93%
    05:00 +16°C° 0.2 mm 0 m/s 734 mmHg 92%
    06:00 +16°C° 0.2 mm 0 m/s 735 mmHg 92%
    07:00 +19°C° 0.6 mm 1 m/s 735 mmHg 92%
    08:00 +19°C° 0.6 mm 1 m/s 735 mmHg 92%
    09:00 +19°C° 0.6 mm 2 m/s 736 mmHg 91%
    10:00 +19°C° 1.2 mm 2 m/s 736 mmHg 90%
    11:00 +20°C° 1.2 mm 2 m/s 736 mmHg 88%
    12:00 +21°C° 1.2 mm 3 m/s 736 mmHg 87%
    13:00 +22°C° 1.1 mm 3 m/s 735 mmHg 85%
    14:00 +22°C° 1.1 mm 3 m/s 735 mmHg 84%
    15:00 +22°C° 1.1 mm 3 m/s 735 mmHg 82%
    16:00 +22°C° 0.4 mm 3 m/s 735 mmHg 84%
    17:00 +21°C° 0.4 mm 2 m/s 735 mmHg 85%
    18:00 +20°C° 0.4 mm 2 m/s 735 mmHg 86%
    19:00 +19°C° 0.1 mm 2 m/s 736 mmHg 89%
    20:00 +18°C° 0.1 mm 2 m/s 736 mmHg 92%
    21:00 +17°C° 0.1 mm 2 m/s 736 mmHg 95%
    22:00 +16°C° 0 mm 1 m/s 737 mmHg 95%
    23:00 +16°C° 0 mm 1 m/s 737 mmHg 96%

    21 Juin, Vendredi

    Heure Température Précipitation Vent Pression Humidité
    00:00 +15°C° 0 mm 1 m/s 737 mmHg 97%
    01:00 +15°C° 0 mm 2 m/s 737 mmHg 97%
    02:00 +15°C° 0 mm 2 m/s 737 mmHg 97%
    03:00 +15°C° 0 mm 2 m/s 737 mmHg 97%
    04:00 +15°C° 0 mm 2 m/s 737 mmHg 95%
    05:00 +15°C° 0 mm 2 m/s 737 mmHg 93%
    06:00 +14°C° 0 mm 3 m/s 738 mmHg 91%
    07:00 +16°C° 0 mm 3 m/s 738 mmHg 88%
    08:00 +17°C° 0 mm 3 m/s 738 mmHg 84%
    09:00 +18°C° 0 mm 3 m/s 738 mmHg 80%
    10:00 +19°C° 0 mm 3 m/s 738 mmHg 76%
    11:00 +20°C° 0 mm 3 m/s 738 mmHg 73%
    12:00 +21°C° 0 mm 4 m/s 738 mmHg 70%
    13:00 +21°C° 0 mm 4 m/s 738 mmHg 70%
    14:00 +21°C° 0 mm 4 m/s 738 mmHg 70%
    15:00 +21°C° 0 mm 4 m/s 738 mmHg 70%
    16:00 +20°C° 0 mm 4 m/s 738 mmHg 73%
    17:00 +19°C° 0 mm 4 m/s 738 mmHg 76%
    18:00 +19°C° 0 mm 4 m/s 738 mmHg 79%
    19:00 +18°C° 0 mm 4 m/s 738 mmHg 81%
    20:00 +16°C° 0 mm 3 m/s 738 mmHg 82%
    21:00 +14°C° 0 mm 3 m/s 738 mmHg 84%
    22:00 +14°C° 0 mm 3 m/s 738 mmHg 83%
    23:00 +14°C° 0 mm 3 m/s 738 mmHg 83%

    22 Juin, Samedi

    Heure Température Précipitation Vent Pression Humidité
    00:00 +15°C° 0 mm 2 m/s 738 mmHg 82%
    01:00 +14°C° 0 mm 2 m/s 738 mmHg 82%
    02:00 +14°C° 0 mm 2 m/s 738 mmHg 81%
    03:00 +14°C° 0 mm 2 m/s 738 mmHg 81%
    04:00 +14°C° 0 mm 2 m/s 738 mmHg 83%
    05:00 +14°C° 0 mm 2 m/s 738 mmHg 85%
    06:00 +14°C° 0 mm 2 m/s 738 mmHg 86%
    07:00 +15°C° 0 mm 2 m/s 738 mmHg 84%
    08:00 +16°C° 0 mm 2 m/s 738 mmHg 82%
    09:00 +17°C° 0 mm 2 m/s 738 mmHg 80%
    10:00 +18°C° 0 mm 2 m/s 738 mmHg 74%
    11:00 +20°C° 0 mm 2 m/s 738 mmHg 68%
    12:00 +23°C° 0 mm 2 m/s 738 mmHg 62%
    13:00 +23°C° 0 mm 2 m/s 738 mmHg 62%
    14:00 +23°C° 0 mm 2 m/s 738 mmHg 61%
    15:00 +24°C° 0 mm 2 m/s 738 mmHg 61%
    16:00 +23°C° 0 mm 2 m/s 738 mmHg 67%
    17:00 +21°C° 0 mm 2 m/s 738 mmHg 74%
    18:00 +21°C° 0 mm 2 m/s 738 mmHg 80%
    19:00 +19°C° 0 mm 2 m/s 738 mmHg 85%
    20:00 +17°C° 0 mm 2 m/s 738 mmHg 89%
    21:00 +15°C° 0 mm 2 m/s 738 mmHg 94%
    22:00 +15°C° 0 mm 2 m/s 738 mmHg 94%
    23:00 +14°C° 0 mm 2 m/s 737 mmHg 95%

    23 Juin, Dimanche

    Heure Température Précipitation Vent Pression Humidité
    00:00 +14°C° 0 mm 2 m/s 737 mmHg 95%
    01:00 +13°C° 0 mm 2 m/s 737 mmHg 95%
    02:00 +13°C° 0 mm 2 m/s 737 mmHg 95%
    03:00 +13°C° 0 mm 2 m/s 737 mmHg 96%
    04:00 +14°C° 0 mm 2 m/s 737 mmHg 94%
    05:00 +15°C° 0 mm 2 m/s 737 mmHg 93%
    06:00 +16°C° 0 mm 2 m/s 737 mmHg 92%
    07:00 +18°C° 0 mm 2 m/s 737 mmHg 85%
    08:00 +19°C° 0 mm 2 m/s 737 mmHg 79%
    09:00 +21°C° 0 mm 2 m/s 737 mmHg 72%
    10:00 +24°C° 0 mm 2 m/s 737 mmHg 69%
    11:00 +25°C° 0 mm 2 m/s 737 mmHg 65%
    12:00 +26°C° 0 mm 2 m/s 737 mmHg 62%
    13:00 +27°C° 0 mm 2 m/s 736 mmHg 63%
    14:00 +27°C° 0 mm 2 m/s 736 mmHg 65%
    15:00 +27°C° 0 mm 3 m/s 736 mmHg 66%
    16:00 +27°C° 0 mm 2 m/s 736 mmHg 71%
    17:00 +26°C° 0 mm 2 m/s 736 mmHg 76%
    18:00 +25°C° 0 mm 2 m/s 735 mmHg 81%
    19:00 +24°C° 0 mm 2 m/s 736 mmHg 83%
    20:00 +23°C° 0 mm 2 m/s 736 mmHg 85%
    21:00 +21°C° 0 mm 2 m/s 736 mmHg 87%
    22:00 +20°C° 0 mm 2 m/s 736 mmHg 87%
    23:00 +20°C° 0 mm 2 m/s 736 mmHg 87%
    Voir plus